Flag Weather past 2 weeks in Baker Island, U.S.A.

Now
84 °F

Passing clouds.


Feels Like: 94 °F
Forecast: 81 / 87 °F
Wind: 7 mph from Northeast

Location: Funafuti

Current Time: Nov 27, 2014 at 9:51:14 PM

Latest Report: Nov 27, 2014 at 9:00 PM


Visibility: N/A

Pressure: 29.71 "Hg

Humidity: 79%

Dew point: 77 °F

Location of Baker IslandLocation

Historic Weather in Baker Island — Graph

°F

Baker Island temperature yesterday

Maximum temperature yesterday: 90 °F (at 2:00 PM)
Minimum temperature yesterday: 79 °F (at 6:00 AM)
Average temperature yesterday: 84 °F

Past Weeks' High & Low Weather Summary

 TemperatureHumidityPressure
High91 °F (Nov 13, 3:00 PM)100% (Nov 21, 6:00 PM)29.92 "Hg (Nov 21, 6:00 PM)
Low77 °F (Nov 21, 5:00 PM)63% (Nov 18, 2:00 PM)28.25 "Hg (Nov 17, 11:00 PM)
Average84 °F79%29.77 "Hg
* Reported Nov 12 8:00 PM — Nov 27 8:00 PM, Baker Island, Weather by CustomWeather, © 2014

Note: Actual official high and low records may vary slightly from our data, if they occured in-between our weather recording intervals... More about our weather records

Advertising

Baker Island weather history for previous 24 hours

 ConditionsComfort  
Time TempWeatherWind HumidityBarometerVisibility
8:00 PM
Nov 27
84 °FPassing clouds.9 mph74%29.71 "HgN/A
7:00 PM84 °FPassing clouds.8 mph79%29.71 "HgN/A
6:00 PM86 °FOvercast.6 mph75%29.68 "HgN/A
5:00 PM88 °FOvercast.9 mph70%29.68 "HgN/A
4:00 PM88 °FPartly sunny.9 mph70%29.65 "HgN/A
3:00 PM90 °FScattered clouds.6 mph67%29.65 "HgN/A
2:00 PM90 °FScattered clouds.9 mph71%29.71 "HgN/A
1:00 PM90 °FScattered clouds.7 mph71%29.68 "HgN/A
12:00 PM90 °FScattered showers. Scattered clouds.8 mph71%29.68 "HgN/A
11:00 AM90 °FScattered clouds.6 mph71%29.71 "HgN/A
10:00 AM90 °FScattered showers. Scattered clouds.7 mph67%29.71 "HgN/A
9:00 AM88 °FScattered clouds.7 mph70%29.74 "HgN/A
8:00 AM86 °FScattered clouds.9 mph75%29.74 "HgN/A
7:00 AM84 °FPassing clouds.7 mph79%29.74 "HgN/A
6:00 AM82 °FSprinkles. Scattered clouds.3 mph84%29.71 "HgN/A
5:00 AM81 °FPartly cloudy.2 mph89%29.68 "HgN/A
4:00 AM81 °FPartly cloudy.3 mph89%29.68 "HgN/A
3:00 AM81 °FPartly cloudy.No wind89%29.68 "HgN/A
2:00 AM81 °FScattered showers. Mostly cloudy.No wind89%29.68 "HgN/A
1:00 AM81 °FScattered showers. Mostly cloudy.No wind89%29.68 "HgN/A
12:00 AM81 °FScattered showers. Mostly cloudy.No wind89%29.74 "HgN/A
11:00 PM
Nov 26
81 °FScattered showers. Mostly cloudy.No wind89%29.74 "HgN/A
10:00 PM81 °FSprinkles. Mostly cloudy.3 mph89%29.74 "HgN/A
9:00 PM81 °FSprinkles. Mostly cloudy.9 mph89%29.74 "HgN/A
Weather by CustomWeather, © 2014

See weather overviewHow to use our weather pages